FW6620 Weather Reports


time (UTC)temp
C
wind
direction
speed
KPH
gust
KPH
rain 1hr
cm
rain 24hr
cm
rain mn
cm
humidity
%
barometer
mb
20260505041611 22 31 0.0 9.7 0.00 0.05 0.05 83 1009.8
20260505041045 22 0 3.2 12.9 0.00 0.05 0.05 83 1009.8
20260505040546 22 45 1.6 12.9 0.00 0.05 0.05 83 1009.9
20260505040056 23 22 3.2 8.0 0.00 0.05 0.05 82 1009.8
20260505035545 23 0 1.6 8.0 0.00 0.05 0.05 82 1010.0
20260505035050 23 0 3.2 9.7 0.00 0.05 0.05 82 1009.9
20260505034558 23 24 1.6 9.7 0.00 0.05 0.05 81 1009.9
20260505034047 23 0 1.6 9.7 0.00 0.05 0.05 81 1009.8
20260505033545 23 39 1.6 12.9 0.00 0.05 0.05 81 1009.7
20260505033053 23 25 1.6 12.9 0.00 0.05 0.05 81 1009.9
20260505032548 23 16 1.6 11.3 0.00 0.05 0.05 81 1009.8
20260505032044 23 27 0.0 6.4 0.00 0.05 0.05 81 1009.9
20260505031602 23 0 0.0 6.4 0.00 0.05 0.05 80 1009.8
20260505031048 23 102 1.6 6.4 0.00 0.05 0.05 80 1009.9
20260505030548 23 9 0.0 6.4 0.00 0.05 0.05 80 1009.8
20260505030048 23 0 1.6 6.4 0.00 0.05 0.05 79 1009.8
20260505025545 23 16 1.6 9.7 0.00 0.05 0.05 79 1009.8
20260505025047 23 0 1.6 9.7 0.00 0.05 0.05 79 1009.8
20260505024549 23 0 0.0 8.0 0.00 0.05 0.05 79 1009.7
20260505024045 23 0 0.0 8.0 0.00 0.05 0.05 78 1009.8
20260505023545 24 18 1.6 8.0 0.00 0.05 0.05 78 1009.8
20260505023057 24 18 1.6 9.7 0.00 0.05 0.05 78 1009.7
20260505022545 24 0 3.2 9.7 0.00 0.05 0.05 78 1009.7
20260505022045 24 19 0.0 4.8 0.00 0.05 0.05 78 1009.6
20260505021555 24 0 0.0 4.8 0.00 0.05 0.05 77 1009.6
20260505021044 24 0 0.0 6.4 0.00 0.05 0.05 77 1009.7
20260505020545 24 24 0.0 6.4 0.00 0.05 0.05 76 1009.6
20260505020049 24 12 0.0 6.4 0.00 0.05 0.05 76 1009.5
20260505015548 25 12 1.6 6.4 0.00 0.05 0.05 75 1009.5
20260505015046 25 0 0.0 9.7 0.00 0.05 0.05 75 1009.6
20260505014553 25 12 0.0 11.3 0.00 0.05 0.05 75 1009.4
20260505014046 25 6 3.2 11.3 0.00 0.05 0.05 74 1009.4
20260505013545 25 0 0.0 8.0 0.00 0.05 0.05 73 1009.5
20260505013047 25 0 1.6 8.0 0.00 0.05 0.05 73 1009.4
20260505012545 25 0 0.0 8.0 0.00 0.05 0.05 72 1009.3
20260505012048 25 0 0.0 8.0 0.00 0.05 0.05 71 1009.4
20260505011549 25 28 1.6 8.0 0.00 0.05 0.05 71 1009.3
20260505011048 25 20 0.0 6.4 0.00 0.05 0.05 70 1009.2
20260505010545 25 22 0.0 6.4 0.00 0.05 0.05 69 1009.2
20260505010052 26 0 0.0 8.0 0.00 0.05 0.05 69 1009.3
20260505005548 26 21 1.6 12.9 0.00 0.05 0.05 69 1009.2
20260505005048 26 29 1.6 12.9 0.00 0.05 0.05 68 1009.2
20260505004549 26 16 3.2 9.7 0.00 0.05 0.05 68 1009.3
20260505004047 26 11 1.6 9.7 0.00 0.05 0.05 68 1009.2
20260505003547 26 0 1.6 9.7 0.00 0.05 0.05 68 1009.1
20260505003055 26 18 1.6 12.9 0.00 0.05 0.05 67 1009.1
20260505002550 26 20 1.6 12.9 0.00 0.05 0.05 67 1009.0
20260505002051 26 17 3.2 16.1 0.00 0.05 0.05 67 1008.8
20260505001554 26 34 1.6 16.1 0.00 0.05 0.05 67 1008.9
20260505001048 26 0 3.2 9.7 0.00 0.05 0.05 66 1009.0
20260505000547 26 25 3.2 11.3 0.03 0.05 0.05 66 1009.0
20260505000058 26 29 1.6 11.3 0.03 0.05 0.05 66 1009.2
20260504235548 26 0 1.6 11.3 0.03 0.05 0.05 65 1009.3
20260504235048 26 35 0.0 11.3 0.03 0.05 0.05 65 1009.3
20260504234557 26 17 1.6 6.4 0.03 0.05 0.05 65 1009.4
20260504234048 26 0 0.0 11.3 0.03 0.05 0.05 65 1009.4
20260504233548 26 0 3.2 12.9 0.03 0.05 0.05 65 1009.5
20260504233050 26 12 3.2 17.7 0.03 0.05 0.05 65 1009.5
20260504232548 26 37 3.2 17.7 0.03 0.05 0.05 66 1009.5
20260504232046 26 16 3.2 14.5 0.03 0.05 0.05 65 1009.6
20260504231559 26 28 0.0 16.1 0.03 0.05 0.05 67 1009.6
20260504231047 26 8 3.2 16.1 0.03 0.05 0.05 65 1009.6
20260504230548 27 33 1.6 12.9 0.00 0.03 0.03 65 1009.7
20260504230058 27 22 3.2 12.9 0.00 0.03 0.03 64 1009.7
20260504225548 27 25 3.2 14.5 0.00 0.05 0.03 64 1009.9
20260504225046 27 28 3.2 14.5 0.00 0.05 0.03 64 1010.0
20260504224551 27 33 3.2 14.5 0.00 0.05 0.03 64 1010.0
20260504224048 27 24 1.6 9.7 0.00 0.05 0.03 64 1010.0
20260504223548 27 18 3.2 9.7 0.00 0.05 0.03 64 1009.9
20260504223051 27 0 1.6 11.3 0.00 0.05 0.03 64 1010.0
20260504222548 27 28 1.6 11.3 0.00 0.05 0.03 63 1010.1
20260504222048 27 18 1.6 9.7 0.00 0.05 0.03 64 1010.1
20260504221557 27 31 3.2 11.3 0.00 0.05 0.03 63 1010.0
20260504221049 27 22 3.2 11.3 0.00 0.05 0.03 64 1010.1
20260504220548 27 20 1.6 9.7 0.00 0.05 0.03 64 1010.2
20260504220054 27 18 0.0 11.3 0.00 0.05 0.03 64 1010.1
20260504215548 27 9 4.8 12.9 0.00 0.05 0.03 63 1010.2
20260504215111 27 27 1.6 12.9 0.00 0.05 0.03 63 1010.3
20260504214555 27 48 1.6 9.7 0.00 0.05 0.03 64 1010.2
20260504214047 27 0 1.6 11.3 0.00 0.05 0.03 63 1010.2
20260504213547 27 24 3.2 11.3 0.00 0.05 0.03 63 1010.2
20260504213056 27 85 1.6 14.5 0.00 0.05 0.03 63 1010.3
20260504212547 27 35 0.0 14.5 0.00 0.05 0.03 64 1010.6
20260504212047 27 33 1.6 9.7 0.00 0.05 0.03 64 1010.6
20260504211553 27 0 1.6 9.7 0.00 0.05 0.03 64 1010.7
20260504211052 27 12 3.2 9.7 0.00 0.05 0.03 63 1010.6
20260504210548 27 20 1.6 14.5 0.00 0.05 0.03 64 1010.9
20260504210109 27 17 3.2 14.5 0.00 0.05 0.03 64 1010.9
20260504205550 27 12 1.6 16.1 0.00 0.05 0.03 64 1011.0
20260504205044 27 16 3.2 16.1 0.00 0.05 0.03 64 1011.0
20260504204602 27 18 3.2 14.5 0.00 0.05 0.03 64 1011.0
20260504204048 27 0 1.6 14.5 0.00 0.05 0.03 64 1011.1
20260504203548 27 23 3.2 14.5 0.00 0.05 0.03 64 1011.3
20260504203058 27 0 3.2 12.9 0.00 0.05 0.03 63 1011.5
20260504202548 27 22 3.2 12.9 0.00 0.05 0.03 64 1011.5
20260504202047 27 24 1.6 12.9 0.00 0.05 0.03 66 1011.6
20260504201554 27 37 1.6 12.9 0.00 0.05 0.03 64 1011.7
20260504201047 27 22 3.2 12.9 0.00 0.05 0.03 64 1011.8
20260504200547 27 0 1.6 14.5 0.00 0.05 0.03 64 1012.0
20260504200057 27 24 1.6 14.5 0.00 0.05 0.03 65 1012.0
20260504195548 27 14 3.2 14.5 0.00 0.05 0.03 66 1012.1
20260504195047 26 0 1.6 12.9 0.00 0.05 0.03 65 1012.2
20260504194609 26 14 0.0 12.9 0.00 0.05 0.03 65 1012.4
20260504194048 26 21 1.6 9.7 0.00 0.05 0.03 64 1012.4
20260504193548 26 15 3.2 16.1 0.00 0.05 0.03 65 1012.4
20260504193055 26 40 3.2 14.5 0.00 0.05 0.03 64 1012.5
20260504192548 26 24 1.6 11.3 0.00 0.05 0.03 65 1012.5
20260504192048 26 20 3.2 14.5 0.00 0.05 0.03 65 1012.6
20260504191554 26 4 3.2 14.5 0.00 0.05 0.03 64 1012.9
20260504191048 26 18 4.8 11.3 0.00 0.05 0.03 64 1013.0
20260504190545 26 31 1.6 16.1 0.00 0.05 0.03 64 1012.9
20260504190125 26 16 3.2 16.1 0.00 0.05 0.03 64 1012.9
20260504185546 26 49 3.2 9.7 0.00 0.05 0.03 67 1013.0
20260504185046 26 12 1.6 14.5 0.00 0.05 0.03 65 1013.0
20260504184558 26 31 4.8 14.5 0.00 0.05 0.03 64 1013.0
20260504184047 26 13 1.6 12.9 0.00 0.05 0.03 65 1013.1
20260504183547 26 81 3.2 12.9 0.00 0.05 0.03 65 1013.1
20260504183058 26 0 1.6 12.9 0.00 0.05 0.03 66 1013.4
20260504182547 26 30 4.8 12.9 0.00 0.05 0.03 66 1013.4
20260504182048 25 18 1.6 8.0 0.00 0.05 0.03 68 1013.6
20260504181600 25 0 1.6 8.0 0.00 0.05 0.03 69 1013.7
20260504181048 25 16 1.6 9.7 0.00 0.05 0.03 71 1013.6
20260504180546 25 59 1.6 9.7 0.00 0.05 0.03 70 1013.6
20260504180144 24 22 1.6 9.7 0.00 0.05 0.03 70 1013.6
20260504175547 24 18 1.6 12.9 0.00 0.05 0.03 71 1013.7
20260504175049 24 14 1.6 12.9 0.00 0.05 0.03 71 1013.9
20260504174556 23 25 0.0 8.0 0.00 0.05 0.03 72 1013.9
20260504174049 23 0 0.0 6.4 0.00 0.05 0.03 71 1013.9
20260504173546 23 26 1.6 8.0 0.00 0.05 0.03 71 1014.4
20260504173127 23 0 0.0 8.0 0.00 0.05 0.03 71 1014.5
20260504172547 23 0 1.6 9.7 0.00 0.05 0.03 71 1014.5
20260504172047 23 19 1.6 9.7 0.00 0.05 0.03 71 1014.6
20260504171558 23 103 3.2 17.7 0.00 0.05 0.03 71 1014.6
20260504171047 23 27 3.2 17.7 0.00 0.05 0.03 72 1014.6
20260504170550 23 46 1.6 16.1 0.00 0.05 0.03 73 1014.6
20260504151047 21 24 0.0 11.3 0.00 0.08 0.03 78 1015.4
20260504150547 21 0 3.2 11.3 0.00 0.08 0.03 77 1015.6
20260504141047 18 56 0.0 11.3 0.00 0.08 0.03 81 1015.5
20260504140547 18 0 3.2 11.3 0.00 0.08 0.03 82 1015.7
20260504140109 18 0 1.6 6.4 0.00 0.08 0.03 83 1015.7
20260504130546 16 0 0.0 4.8 0.00 0.08 0.03 89 1015.7
20260504120112 15 0 0.0 0.0 0.00 0.08 0.03 88 1015.0
20260504110547 15 0 0.0 0.0 0.00 0.08 0.03 87 1015.4
20260504100549 16 0 0.0 3.2 0.03 0.10 0.03 85 1015.5
20260504081552 17 0 0.0 4.8 0.00 0.08 0.00 80 1016.0
20260504081047 17 0 0.0 4.8 0.00 0.08 0.00 79 1016.2
20260504080546 17 0 0.0 4.8 0.00 0.08 0.00 79 1016.1
20260504050546 18 0 1.6 6.4 0.00 0.08 0.00 70 1018.1
20260504050138 18 33 0.0 6.4 0.00 0.08 0.00 69 1018.0
20260504045545 18 27 0.0 4.8 0.00 0.08 0.08 69 1018.2
20260504045047 19 0 0.0 8.0 0.00 0.08 0.08 69 1018.1
20260504044559 18 0 0.0 8.0 0.00 0.08 0.08 69 1018.3
20260504044047 18 21 0.0 6.4 0.00 0.08 0.08 68 1018.2
20260504043547 18 21 0.0 6.4 0.00 0.08 0.08 68 1018.1
20260504043100 18 23 0.0 9.7 0.00 0.08 0.08 69 1018.2
20260504042546 18 0 1.6 9.7 0.00 0.08 0.08 69 1018.3